Taurus 1
1 44530U 19059C   25052.79254749  .00011533  00000-0  22508-2 0  9993
2 44530  98.5911 187.3547 0009037   5.1638 354.9654 14.63093012288168
Duchifat 3
1 44854U 19089C   25052.81292653  .00041806  00000-0  12070-2 0  9993
2 44854  36.9488 314.6890 0008004 356.0461   4.0228 15.34705586286313
TO-108
1 44881U 19093C   25052.78054622  .00001938  00000-0  23222-3 0  9990
2 44881  97.8020 130.6719 0013071 221.2345 138.7883 14.85165551280077
FloripaSat 1
1 44885U 19093G   25052.77402528  .00010123  00000-0  89890-3 0  9994
2 44885  97.8195 140.2996 0011059 202.0599 158.0147 14.96302309280614
RS-44
1 44909U 19096E   25052.43052309  .00000013  00000-0  80564-5 0  9993
2 44909  82.5214 299.1554 0217207 188.1970 171.5562 12.79738436240854
UPMSat 2
1 46276U 20061E   25052.23102164  .00050911  00000-0  79949-3 0  9994
2 46276  97.2603 124.1321 0000396 199.0615 161.0623 15.53502483248567
SALSAT
1 46495U 20068K   25052.50361394  .00011572  00000-0  53852-3 0  9991
2 46495  97.8496  25.8100 0012561 166.1313 194.0268 15.20043799242092
CubeSX-Sirius-HSE
1 47951U 21022V   25052.79141354  .00087806  00000-0  13571-2 0  9999
2 47951  97.4326 320.3296 0006444 353.1462   6.9702 15.53772356216913
CubeSX-HSE
1 47952U 21022W   25052.83373378  .00095486  00000-0  14467-2 0  9996
2 47952  97.4322 320.5581 0005959 347.8825  12.2284 15.54296727216933
KSU-Cubesat
1 47954U 21022Y   25052.68782521  .00281963  00000-0  17389-2 0  9998
2 47954  97.4295 324.6875 0002734  52.1735 307.9778 15.76358688216907
GRBAlpha
1 47959U 21022AD  25052.79620021  .00088625  00000-0  13525-2 0  9999
2 47959  97.4311 320.6758 0006349 352.9662   7.1501 15.54120122215754
Orbicraft-Zorkiy
1 47960U 21022AE  25052.80971297  .00175151  00000-0  16964-2 0  9998
2 47960  97.4305 323.8814 0003556   6.4388 353.6917 15.65825562216629
TUBIN
1 48900U 21059X   25052.79780925  .00046677  00000-0  87554-3 0  9991
2 48900  97.6672 214.2801 0005178 276.6552  83.4108 15.48490469203292
LEDSAT
1 49069U 21073D   25052.83428717  .00051761  00000-0  10824-2 0  9992
2 49069  97.4023 131.0809 0012807 113.4424 246.8172 15.45227894194713
CUTE
1 49263U 21088D   25052.16259644  .00023056  00000-0  54566-3 0  9999
2 49263  97.4631 125.6237 0008362 274.9717  85.0575 15.41765056187699
TeikyoSat 4
1 49396U 21102B   25052.60806747  .00003788  00000-0  25773-3 0  9992
2 49396  97.4265  94.8933 0013686 139.2448 220.9806 15.06824501180285
Z-Sat
1 49399U 21102E   25052.80455149  .00007752  00000-0  44229-3 0  9995
2 49399  97.3977  97.5622 0020032 116.0889 244.2406 15.12850684180673
KOSEN 1
1 49402U 21102H   25052.85183176  .00010572  00000-0  52242-3 0  9991
2 49402  97.3891 100.2680 0018241  95.7434 264.5880 15.17884440180939
HO-113
1 50466U 21131B   25052.83501306  .00001260  00000-0  40934-3 0  9991
2 50466  98.5123 142.7411 0005236 100.4938 259.6840 14.40554112165937
IRIS-A
1 51044U 22002BN  25052.47088805  .00094769  00000-0  12034-2 0  9991
2 51044  97.3431 127.6723 0004218 215.2392 144.8586 15.59088055172855
Foresail-1
1 52766U 22057AL  25052.63177400  .00079906  00000-0  10372-2 0  9990
2 52766  97.5986 194.5983 0006761 303.9940  56.0673 15.58541321152919
SNUGLITE 2
1 52899U 22065F   25052.63312365  .00002746  00000-0  54863-3 0  9999
2 52899  98.1488 195.8027 0008566  92.9262 267.2920 14.62659994140705
IO-117
1 53106U 22080B   25051.21822557 -.00000003  00000-0  00000+0 0  9995
2 53106  70.1434 106.3440 0008542  48.0089 312.1297  6.42557744 61200
FO-118
1 54684U 22167C   25052.84183947  .00620199  15588-3  18728-2 0  9998
2 54684  97.6056 217.1924 0009663 298.6820  61.3482 15.92088383122946
SO-120
1 56992U 23084BU  25042.76759540  .17342116  26494-5  33638-3 0  9995
2 56992  97.5047 178.6720 0014759 276.3055  83.6566 16.46134597 93271
UmKA 1 (RS40S)
1 57172U 23091G   25052.84348070  .00009527  00000-0  53789-3 0  9993
2 57172  97.5754 108.8420 0014688 351.2385   8.8587 15.13254573 91178
CubeBel-2 (EU11S)
1 57175U 23091K   25052.85235741  .00013343  00000-0  69457-3 0  9997
2 57175  97.5754 109.4329 0012835   1.7264 358.4011 15.16080372 91219
VERONIKA
1 58261U 23174F   25052.81879505  .00069587  00000-0  14376-2 0  9994
2 58261  97.4268 134.6592 0006790  77.0197 283.1810 15.45569221 71914
KAFASAT
1 58317U 23174BP  25052.80659293  .00218294  00000-0  20271-2 0  9997
2 58317  97.4143 138.1203 0003131 353.8877   6.2344 15.66747713 72163
ENSO
1 58470U 23185J   25052.84551559  .00047856  00000-0  11009-2 0  9992
2 58470  97.3888 125.5080 0009036 111.3521 248.8692 15.42457223 68358
EIRSAT-1
1 58472U 23185L   25052.84648853  .00064115  00000-0  12780-2 0  9992
2 58472  97.3881 126.2283 0007770 111.8125 248.3952 15.46631711 68404
SONATE-2
1 59112U 24043Q   25052.62039852  .00022691  00000-0  77543-3 0  9999
2 59112  97.4970 182.1478 0012317 137.0036 223.2169 15.30224187 53793
MO-122
1 60209U 24125G   25052.52466028  .00024706  00000-0  83292-3 0  9994
2 60209  97.2942 265.6436 0021238 161.0351 199.1686 15.30496500 35390
GRBBeta
1 60237U 24128C   25052.81623187  .00005893  00000-0  46733-3 0  9996
2 60237  61.9922  94.8837 0041534  32.5727 327.7912 15.00952112 34016
Curium One
1 60242U 24128H   25052.46379919  .00010582  00000-0  79671-3 0  9992
2 60242  61.9825  95.6972 0041823  27.0698 333.2560 15.02289909 33974
ROBUSTA-3A
1 60243U 24128J   25052.43686629  .00010268  00000-0  78237-3 0  9997
2 60243  61.9890  96.2908 0040034  24.9158 335.3853 15.01920717 33968
CatSat
1 60246U 24125J   25052.57501354  .00013718  00000-0  50026-3 0  9992
2 60246  97.2728 265.9673 0046787 117.4122 243.1888 15.27218504 33480
HYPERVIEW-1G (RS66S)
1 61772U 24199AP  25052.81937017  .00026281  00000-0  92704-3 0  9992
2 61772  97.3723 282.2355 0014342 213.6498 146.3832 15.29133662 60450
AO-123
1 61781U 24199AY  25052.87205177  .00011459  00000-0  44784-3 0  9999
2 61781  97.3729 282.0248 0015549 215.1379 144.8835 15.25915515 60446
POEM 4 (BGS ARPIT)
1 62461U 24253C   25052.76610161  .00194549  00000-0  79656-3 0  9995
2 62461  55.2196   2.5305 0011793  75.5544 284.6815 15.84962168  8366
